Waarnemingen

Advertentie
Mijn weer
S. Maria Di Leuca, Italië (16360): temperatuur & dauwpunt: 06.12.2017 12:00:00 - 12.12.2017 12:00:00 (CET)S. Maria Di Leuca, Italië (16360): windsnelheid: 06.12.2017 12:00:00 - 12.12.2017 12:00:00 (CET)S. Maria Di Leuca, Italië (16360): windrichting: 06.12.2017 12:00:00 - 12.12.2017 12:00:00 (CET)S. Maria Di Leuca, Italië (16360): luchtdruk: 06.12.2017 12:00:00 - 12.12.2017 12:00:00 (CET)S. Maria Di Leuca, Italië (16360): zicht: 06.12.2017 12:00:00 - 12.12.2017 12:00:00 (CET)S. Maria Di Leuca, Italië (16360): Zonneschijnduur: 06.12.2017 12:00:00 - 12.12.2017 12:00:00 (CET)
Datum & Tijd tt [°C] td [°C] ff [km/u] ff [kn] dd ppp [hPa] vv [km] sd [min]
12.12.2017 12:00:00 16,4 14,2 26 14 ZZW 1019,3 12 60
12.12.2017 11:00:00 16,2 14,0 26 14 ZW 1019,3 12 60
12.12.2017 10:00:00 16,0 14,0 24 13 Z 1019,1 12 60
12.12.2017 09:00:00 15,8 13,7 24 13 ZZW 1019,0 12 54
12.12.2017 08:00:00 15,0 13,2 21 11 Z 1018,9 10 0
12.12.2017 07:00:00 15,0 13,2 22 12 ZZW 1018,3 10 -
12.12.2017 06:00:00 15,0 13,0 24 13 Z 1018,0 10 -
12.12.2017 05:00:00 15,2 13,0 22 12 Z 1017,6 10 -
12.12.2017 04:00:00 15,0 12,9 21 11 Z 1017,6 10 -
12.12.2017 03:00:00 15,2 13,2 22 12 Z 1017,6 10 -
12.12.2017 02:00:00 15,0 13,4 22 12 ZZW 1017,6 10 -
12.12.2017 01:00:00 15,2 13,6 26 14 NNO 1017,6 10 -
12.12.2017 00:00:00 15,2 13,6 26 14 ONO 1017,6 10 -
11.12.2017 23:00:00 15,2 13,6 28 15 Z 1017,6 10 -
11.12.2017 22:00:00 15,0 13,0 11 6 Z 1017,8 10 -
11.12.2017 21:00:00 14,8 12,7 24 13 Z 1018,0 10 -
11.12.2017 20:00:00 14,2 11,2 26 14 N 1017,9 8 -
11.12.2017 19:00:00 14,2 11,9 26 14 ZZW 1018,1 8 -
11.12.2017 18:00:00 14,4 12,8 22 12 Z 1017,8 10 -
11.12.2017 17:00:00 14,6 13,5 24 13 Z 1017,6 8 0
11.12.2017 16:00:00 14,6 14,0 28 15 Z 1017,4 8 0
11.12.2017 15:00:00 14,8 14,2 29 16 Z 1017,4 15 0
11.12.2017 14:00:00 14,8 13,8 29 16 Z 1017,4 15 0
11.12.2017 13:00:00 14,8 13,0 28 15 Z 1017,9 15 6
11.12.2017 12:00:00 14,8 12,0 28 15 Z 1018,3 15 54
11.12.2017 11:00:00 14,8 9,4 26 14 ZZW 1018,6 15 60
11.12.2017 10:00:00 13,8 9,0 34 18 ZZW 1018,7 15 48
11.12.2017 09:00:00 13,4 9,8 26 14 Z 1018,5 15 12
11.12.2017 08:00:00 12,6 10,0 26 14 ZZW 1018,3 15 0
11.12.2017 07:00:00 12,0 7,1 26 14 ZZW 1018,4 12 0
11.12.2017 06:00:00 12,0 6,9 28 15 ZZW 1018,4 12 -
11.12.2017 05:00:00 11,4 7,7 22 12 ZZW 1018,4 12 -
11.12.2017 04:00:00 12,0 8,1 22 12 ZZW 1018,7 12 -
11.12.2017 03:00:00 10,2 5,6 18 10 ZZW 1018,8 12 -
11.12.2017 02:00:00 10,2 5,6 22 12 ZZW 1018,8 12 -
11.12.2017 01:00:00 10,0 5,2 16 9 ZW 1019,1 12 -
11.12.2017 00:00:00 10,0 5,4 18 10 ZW 1019,4 12 -
10.12.2017 23:00:00 10,2 7,3 24 13 ZZW 1019,4 12 -
10.12.2017 22:00:00 10,0 6,0 21 11 ZZW 1019,4 12 -
10.12.2017 21:00:00 9,0 5,5 15 8 NW 1019,4 12 -
10.12.2017 20:00:00 8,8 5,0 16 9 Z 1019,5 15 -
10.12.2017 19:00:00 8,6 4,1 13 7 ZZW 1019,8 20 -
10.12.2017 18:00:00 8,0 2,7 11 6 Z 1019,8 20 -
10.12.2017 17:00:00 8,2 2,0 8 4 ZZW 1019,8 20 0
10.12.2017 16:00:00 8,8 1,5 5 3 ZZW 1019,6 20 60
10.12.2017 15:00:00 9,0 0,4 9 5 WZW 1019,7 20 60
10.12.2017 14:00:00 9,2 0,6 8 4 WZW 1019,8 20 60
10.12.2017 13:00:00 9,0 -0,9 11 6 W 1019,9 20 60
10.12.2017 12:00:00 9,0 0,7 9 5 WZW 1020,1 20 60
10.12.2017 11:00:00 8,0 0,2 9 5 NNW 1020,6 20 60
10.12.2017 10:00:00 7,2 2,5 11 6 NNW 1020,2 20 60
10.12.2017 09:00:00 6,6 2,9 13 7 NNW 1019,9 20 60
10.12.2017 08:00:00 6,2 3,0 15 8 N 1019,4 20 36
10.12.2017 07:00:00 6,2 3,5 15 8 NNW 1018,8 15 -
10.12.2017 06:00:00 6,2 3,5 15 8 NW 1017,9 12 -
10.12.2017 05:00:00 6,0 4,0 15 8 NW 1017,0 12 -
10.12.2017 04:00:00 6,4 4,2 11 6 WNW 1016,6 10 -
10.12.2017 03:00:00 6,8 3,2 15 8 NW 1016,1 10 -
10.12.2017 02:00:00 7,2 3,6 15 8 NW 1016,1 10 -
10.12.2017 01:00:00 7,8 4,0 18 10 WNW 1015,1 10 -
10.12.2017 00:00:00 8,2 5,3 21 11 WNW 1013,9 10 -
09.12.2017 23:00:00 8,8 6,1 31 17 WNW 1013,2 10 -
09.12.2017 22:00:00 9,6 6,3 22 12 WNW 1011,9 10 -
09.12.2017 21:00:00 12,8 5,7 48 26 W 1010,5 10 -
09.12.2017 20:00:00 13,2 5,6 48 26 W 1009,5 12 -
09.12.2017 19:00:00 13,8 7,4 37 20 W 1009,2 12 -
09.12.2017 18:00:00 14,0 12,7 29 16 W 1008,4 12 -
09.12.2017 17:00:00 14,0 13,2 29 16 ZW 1008,4 15 0
09.12.2017 16:00:00 14,0 11,9 35 19 WZW 1008,3 15 0
09.12.2017 15:00:00 14,0 12,0 34 18 ZW 1008,9 15 0
09.12.2017 14:00:00 14,0 12,4 37 20 ZW 1009,3 15 0
09.12.2017 13:00:00 14,0 11,5 34 18 ZZW 1011,1 15 0
09.12.2017 12:00:00 14,0 11,4 13 7 ZZW 1011,2 15 0
09.12.2017 11:00:00 14,0 8,6 35 19 ZW 1012,0 15 60
09.12.2017 10:00:00 13,6 9,5 31 17 ZW 1012,8 15 60
09.12.2017 09:00:00 13,4 9,5 34 18 ZW 1013,3 15 30
09.12.2017 08:00:00 13,4 9,1 31 17 ZW 1013,3 15 0
09.12.2017 07:00:00 13,4 8,7 34 18 ZW 1014,1 15 -
09.12.2017 06:00:00 13,2 8,5 34 18 ZW 1014,2 12 -
09.12.2017 05:00:00 13,0 8,5 24 13 ZW 1015,0 12 -
09.12.2017 04:00:00 12,8 9,2 28 15 ZW 1016,0 12 -
09.12.2017 03:00:00 12,6 8,3 24 13 ZW 1016,5 12 -
09.12.2017 02:00:00 12,4 9,0 22 12 ZZW 1017,6 12 -
09.12.2017 01:00:00 12,4 9,4 22 12 ZZW 1018,4 12 -
09.12.2017 00:00:00 12,4 8,3 22 12 ZZW 1019,5 12 -
08.12.2017 23:00:00 12,6 10,1 18 10 ZW 1020,4 12 -
08.12.2017 22:00:00 12,6 9,4 22 12 ZZW 1020,8 12 -
08.12.2017 21:00:00 12,6 10,0 22 12 NW 1021,0 12 -
08.12.2017 20:00:00 12,6 9,8 21 11 ZZW 1021,5 15 -
08.12.2017 19:00:00 12,6 11,0 15 8 ZZW 1021,8 15 -
08.12.2017 18:00:00 12,6 9,6 13 7 ZZW 1022,0 15 -
08.12.2017 17:00:00 12,6 10,5 13 7 Z 1022,3 20 0
08.12.2017 16:00:00 12,6 9,6 11 6 Z 1022,5 30 60
08.12.2017 15:00:00 13,0 9,6 15 8 ZZO 1022,9 30 60
08.12.2017 14:00:00 13,2 9,2 15 8 Z 1023,3 30 60
08.12.2017 13:00:00 13,0 8,1 11 6 Z 1024,1 25 60
08.12.2017 12:00:00 12,6 7,3 9 5 ZZW 1025,1 20 60
08.12.2017 11:00:00 12,4 7,1 9 5 ZZW 1025,9 20 60
08.12.2017 10:00:00 12,6 5,7 5 3 ZW 1026,1 20 60
08.12.2017 09:00:00 10,2 4,6 4 2 N 1026,3 20 60
08.12.2017 08:00:00 10,2 5,2 9 5 N 1026,4 15 42
08.12.2017 07:00:00 10,2 6,7 9 5 N 1026,5 15 0
08.12.2017 06:00:00 10,0 8,4 11 6 N 1026,7 10 -
08.12.2017 05:00:00 10,0 8,4 11 6 N 1026,7 10 -
08.12.2017 04:00:00 10,0 8,4 11 6 N 1026,9 10 -
08.12.2017 03:00:00 10,0 8,4 11 6 N 1027,1 10 -
08.12.2017 02:00:00 10,0 8,4 13 7 N 1027,7 10 -
08.12.2017 01:00:00 10,0 8,4 13 7 N 1027,8 10 -
08.12.2017 00:00:00 10,0 8,4 15 8 N 1028,2 10 -
07.12.2017 23:00:00 10,2 9,4 15 8 N 1028,5 12 -
07.12.2017 22:00:00 10,6 9,5 15 8 N 1028,7 12 -
07.12.2017 21:00:00 10,8 10,0 11 6 N 1028,9 12 -
07.12.2017 20:00:00 11,0 10,4 13 7 N 1029,0 15 -
07.12.2017 19:00:00 11,2 10,6 13 7 N 1029,3 15 -
07.12.2017 18:00:00 11,6 10,5 9 5 N 1029,3 15 -
07.12.2017 17:00:00 11,8 9,7 9 5 N 1029,2 20 0
07.12.2017 16:00:00 12,4 8,3 13 7 N 1029,2 20 60
07.12.2017 15:00:00 12,6 7,5 15 8 N 1029,2 20 60
07.12.2017 14:00:00 12,4 6,9 16 9 N 1029,6 20 60
07.12.2017 13:00:00 12,4 6,7 13 7 N 1029,9 20 60
07.12.2017 12:00:00 12,0 7,7 15 8 N 1030,6 20 60
07.12.2017 11:00:00 11,4 7,7 18 10 N 1030,7 20 60
07.12.2017 10:00:00 10,6 8,0 15 8 N 1030,8 20 60
07.12.2017 09:00:00 9,8 8,2 8 4 NNW 1030,7 20 60
07.12.2017 08:00:00 9,4 8,7 15 8 NNW 1030,6 20 36
07.12.2017 07:00:00 9,0 9,0 15 8 NNW 1030,6 15 0
07.12.2017 06:00:00 9,0 8,1 13 7 NNW 1030,7 15 -
07.12.2017 05:00:00 9,0 7,8 16 9 NNW 1030,7 15 -
07.12.2017 04:00:00 8,8 8,7 15 8 NNW 1030,9 15 -
07.12.2017 03:00:00 8,8 8,7 15 8 N 1030,8 15 -
07.12.2017 02:00:00 8,8 7,6 16 9 N 1030,9 15 -
07.12.2017 01:00:00 8,8 7,6 18 10 N 1031,2 15 -
07.12.2017 00:00:00 8,4 6,9 16 9 N 1031,3 15 -
06.12.2017 23:00:00 8,4 6,4 18 10 N 1031,3 15 -
06.12.2017 22:00:00 10,0 6,7 16 9 N 1031,3 10 -
06.12.2017 21:00:00 10,0 6,7 15 8 N 1031,3 10 -
06.12.2017 20:00:00 9,6 7,2 16 9 N 1031,3 10 -
06.12.2017 19:00:00 10,0 7,6 15 8 N 1030,9 10 -
06.12.2017 18:00:00 10,4 8,2 9 5 N 1031,0 12 -
06.12.2017 17:00:00 11,2 8,4 9 5 N 1031,0 15 12
06.12.2017 16:00:00 12,0 8,3 13 7 NNO 1030,7 20 60
06.12.2017 15:00:00 12,2 7,3 15 8 N 1030,7 20 42
06.12.2017 14:00:00 12,4 7,7 13 7 N 1030,9 20 48
06.12.2017 13:00:00 12,4 8,1 18 10 N 1031,4 20 60
06.12.2017 12:00:00 12,2 7,7 16 9 N 1031,9 20 60

tt = temperatuur
td = dauwpunt
ff = windsnelheid
dd = windrichting
ppp = luchtdruk
vv = zicht
sd = Zonneschijnduur

Weerstations in de omgeving